When you browse on this site, cookies collect data to enhance your experience and personalize the content and advertising you see.
Visit our Privacy Policy to learn more. By continuing to use the site, you agree to this use of cookies and data.
  • In Latvia
  • List of Countries
  • For 7 days
  • Water Temperature
  • Weather Map
  • Weather Widgets
  • user-avatar
    Login

    Hourly Weather Dikhil

    Today, 25 May, Monday

    Time Temperature Precipitation Wind Pressure Humidity
    00:00 +36°C° 0 mm 4 mps 715 mmHg 28%
    01:00 +36°C° 0 mm 3 mps 714 mmHg 29%
    02:00 +35°C° 0 mm 2 mps 714 mmHg 31%
    03:00 +34°C° 0 mm 2 mps 714 mmHg 34%
    04:00 +33°C° 0 mm 1 mps 714 mmHg 34%
    05:00 +33°C° 0 mm 1 mps 715 mmHg 34%
    06:00 +30°C° 0 mm 0 mps 715 mmHg 34%
    07:00 +34°C° 0 mm 1 mps 716 mmHg 29%
    08:00 +35°C° 0 mm 1 mps 716 mmHg 24%
    09:00 +37°C° 0 mm 1 mps 716 mmHg 19%
    10:00 +39°C° 0 mm 2 mps 716 mmHg 18%
    11:00 +40°C° 0 mm 2 mps 716 mmHg 16%
    12:00 +41°C° 0 mm 2 mps 716 mmHg 15%
    13:00 +42°C° 0 mm 2 mps 715 mmHg 14%
    14:00 +43°C° 0 mm 3 mps 714 mmHg 13%
    15:00 +44°C° 0 mm 3 mps 714 mmHg 13%
    16:00 +43°C° 0 mm 4 mps 714 mmHg 15%
    17:00 +43°C° 0 mm 5 mps 714 mmHg 18%
    18:00 +42°C° 0 mm 6 mps 713 mmHg 21%
    19:00 +40°C° 0 mm 6 mps 714 mmHg 28%
    20:00 +39°C° 0 mm 7 mps 714 mmHg 35%
    21:00 +36°C° 0 mm 7 mps 715 mmHg 43%
    22:00 +35°C° 0 mm 7 mps 715 mmHg 45%
    23:00 +34°C° 0 mm 6 mps 715 mmHg 47%

    Tomorrow, 26 May, Tuesday

    Time Temperature Precipitation Wind Pressure Humidity
    00:00 +34°C° 0 mm 6 mps 715 mmHg 49%
    01:00 +33°C° 0 mm 5 mps 715 mmHg 50%
    02:00 +33°C° 0 mm 4 mps 715 mmHg 51%
    03:00 +31°C° 0 mm 3 mps 714 mmHg 52%
    04:00 +31°C° 0 mm 3 mps 715 mmHg 53%
    05:00 +31°C° 0 mm 2 mps 715 mmHg 55%
    06:00 +31°C° 0 mm 2 mps 715 mmHg 57%
    07:00 +32°C° 0 mm 2 mps 716 mmHg 51%
    08:00 +33°C° 0 mm 1 mps 716 mmHg 46%
    09:00 +34°C° 0 mm 1 mps 717 mmHg 40%
    10:00 +36°C° 0 mm 1 mps 716 mmHg 36%
    11:00 +38°C° 0 mm 2 mps 716 mmHg 31%
    12:00 +40°C° 0 mm 2 mps 716 mmHg 26%
    13:00 +42°C° 0 mm 3 mps 715 mmHg 24%
    14:00 +43°C° 0 mm 3 mps 715 mmHg 21%
    15:00 +43°C° 0 mm 4 mps 714 mmHg 19%
    16:00 +42°C° 0 mm 5 mps 714 mmHg 23%
    17:00 +41°C° 0 mm 6 mps 714 mmHg 27%
    18:00 +40°C° 0 mm 7 mps 714 mmHg 32%
    19:00 +39°C° 0 mm 7 mps 714 mmHg 35%
    20:00 +38°C° 0 mm 6 mps 715 mmHg 39%
    21:00 +36°C° 0 mm 5 mps 715 mmHg 42%
    22:00 +36°C° 0 mm 5 mps 715 mmHg 43%
    23:00 +35°C° 0 mm 4 mps 715 mmHg 43%

    Day after tomorrow, 27 May, Wednesday

    Time Temperature Precipitation Wind Pressure Humidity
    00:00 +35°C° 0 mm 4 mps 715 mmHg 43%
    01:00 +34°C° 0 mm 3 mps 715 mmHg 45%
    02:00 +34°C° 0 mm 3 mps 715 mmHg 46%
    03:00 +32°C° 0 mm 2 mps 714 mmHg 48%
    04:00 +32°C° 0 mm 2 mps 715 mmHg 48%
    05:00 +32°C° 0 mm 2 mps 715 mmHg 49%
    06:00 +32°C° 0 mm 1 mps 715 mmHg 49%
    07:00 +33°C° 0 mm 1 mps 716 mmHg 45%
    08:00 +34°C° 0 mm 1 mps 716 mmHg 40%
    09:00 +35°C° 0 mm 1 mps 717 mmHg 36%
    10:00 +36°C° 0 mm 1 mps 716 mmHg 32%
    11:00 +39°C° 0 mm 1 mps 716 mmHg 28%
    12:00 +40°C° 0 mm 1 mps 716 mmHg 24%
    13:00 +41°C° 0 mm 2 mps 715 mmHg 22%
    14:00 +43°C° 0 mm 3 mps 715 mmHg 20%
    15:00 +43°C° 0 mm 3 mps 714 mmHg 18%
    16:00 +42°C° 0 mm 4 mps 714 mmHg 22%
    17:00 +41°C° 0 mm 5 mps 714 mmHg 26%
    18:00 +40°C° 0 mm 6 mps 714 mmHg 30%
    19:00 +39°C° 0 mm 6 mps 714 mmHg 34%
    20:00 +38°C° 0 mm 6 mps 715 mmHg 38%
    21:00 +38°C° 0 mm 6 mps 715 mmHg 43%
    22:00 +36°C° 0 mm 5 mps 715 mmHg 43%
    23:00 +35°C° 0 mm 5 mps 715 mmHg 44%

    28 May, Thursday

    Time Temperature Precipitation Wind Pressure Humidity
    00:00 +35°C° 0 mm 4 mps 715 mmHg 45%
    01:00 +35°C° 0 mm 4 mps 715 mmHg 45%
    02:00 +34°C° 0 mm 3 mps 714 mmHg 46%
    03:00 +34°C° 0 mm 2 mps 714 mmHg 46%
    04:00 +34°C° 0 mm 2 mps 714 mmHg 47%
    05:00 +32°C° 0 mm 2 mps 715 mmHg 48%
    06:00 +32°C° 0 mm 1 mps 715 mmHg 49%
    07:00 +33°C° 0 mm 1 mps 715 mmHg 44%
    08:00 +35°C° 0 mm 1 mps 716 mmHg 40%
    09:00 +36°C° 0 mm 1 mps 717 mmHg 35%
    10:00 +37°C° 0 mm 1 mps 716 mmHg 31%
    11:00 +40°C° 0 mm 2 mps 716 mmHg 27%
    12:00 +42°C° 0 mm 3 mps 715 mmHg 23%
    13:00 +43°C° 0 mm 3 mps 715 mmHg 21%
    14:00 +43°C° 0 mm 4 mps 714 mmHg 19%
    15:00 +44°C° 0 mm 4 mps 713 mmHg 17%
    16:00 +43°C° 0 mm 4 mps 713 mmHg 18%
    17:00 +43°C° 0 mm 4 mps 713 mmHg 19%
    18:00 +42°C° 0 mm 3 mps 713 mmHg 20%
    19:00 +41°C° 0 mm 4 mps 714 mmHg 26%
    20:00 +40°C° 0 mm 5 mps 714 mmHg 33%
    21:00 +37°C° 0 mm 5 mps 714 mmHg 39%
    22:00 +37°C° 0 mm 5 mps 714 mmHg 41%
    23:00 +36°C° 0 mm 4 mps 714 mmHg 43%

    29 May, Friday

    Time Temperature Precipitation Wind Pressure Humidity
    00:00 +36°C° 0 mm 4 mps 714 mmHg 45%
    01:00 +35°C° 0 mm 3 mps 714 mmHg 46%
    02:00 +35°C° 0 mm 2 mps 714 mmHg 47%
    03:00 +35°C° 0 mm 2 mps 713 mmHg 48%
    04:00 +33°C° 0 mm 1 mps 714 mmHg 49%
    05:00 +33°C° 0 mm 1 mps 714 mmHg 50%
    06:00 +32°C° 0 mm 1 mps 714 mmHg 51%
    07:00 +34°C° 0 mm 1 mps 715 mmHg 46%
    08:00 +35°C° 0 mm 1 mps 716 mmHg 42%
    09:00 +36°C° 0 mm 1 mps 716 mmHg 38%
    10:00 +37°C° 0 mm 1 mps 716 mmHg 33%
    11:00 +39°C° 0 mm 1 mps 715 mmHg 29%
    12:00 +41°C° 0 mm 1 mps 715 mmHg 24%
    13:00 +42°C° 0 mm 2 mps 714 mmHg 22%
    14:00 +44°C° 0 mm 3 mps 713 mmHg 19%
    15:00 +44°C° 0 mm 4 mps 713 mmHg 17%
    16:00 +44°C° 0 mm 4 mps 713 mmHg 17%
    17:00 +44°C° 0 mm 4 mps 713 mmHg 16%
    18:00 +44°C° 0 mm 4 mps 713 mmHg 16%
    19:00 +43°C° 0 mm 4 mps 713 mmHg 18%
    20:00 +42°C° 0 mm 3 mps 713 mmHg 21%
    21:00 +40°C° 0 mm 3 mps 714 mmHg 23%
    22:00 +39°C° 0 mm 3 mps 714 mmHg 28%
    23:00 +38°C° 0 mm 2 mps 714 mmHg 33%

    30 May, Saturday

    Time Temperature Precipitation Wind Pressure Humidity
    00:00 +37°C° 0 mm 2 mps 714 mmHg 37%
    01:00 +36°C° 0 mm 2 mps 713 mmHg 40%
    02:00 +35°C° 0 mm 2 mps 713 mmHg 42%
    03:00 +35°C° 0 mm 2 mps 713 mmHg 45%
    04:00 +33°C° 0 mm 1 mps 713 mmHg 44%
    05:00 +33°C° 0 mm 1 mps 714 mmHg 43%
    06:00 +33°C° 0 mm 1 mps 714 mmHg 43%
    07:00 +35°C° 0 mm 2 mps 714 mmHg 38%
    08:00 +37°C° 0 mm 2 mps 715 mmHg 33%
    09:00 +38°C° 0 mm 3 mps 715 mmHg 28%
    10:00 +41°C° 0 mm 4 mps 715 mmHg 24%
    11:00 +42°C° 0 mm 4 mps 715 mmHg 20%
    12:00 +43°C° 0 mm 4 mps 715 mmHg 17%
    13:00 +44°C° 0 mm 4 mps 714 mmHg 15%
    14:00 +45°C° 0 mm 4 mps 713 mmHg 14%
    15:00 +45°C° 0 mm 4 mps 713 mmHg 12%
    16:00 +45°C° 0 mm 4 mps 713 mmHg 12%
    17:00 +45°C° 0 mm 4 mps 713 mmHg 12%
    18:00 +45°C° 0 mm 4 mps 713 mmHg 12%
    19:00 +43°C° 0 mm 3 mps 713 mmHg 16%
    20:00 +42°C° 0 mm 3 mps 713 mmHg 20%
    21:00 +39°C° 0 mm 3 mps 714 mmHg 24%
    22:00 +38°C° 0 mm 3 mps 714 mmHg 29%
    23:00 +37°C° 0 mm 3 mps 714 mmHg 34%
    Show more